User: anonymous   Login
Location: NJAA Observatory
(40.6819°N, 74.8979°W)
Time: 10:22:20
(UTC-04:00)
Language:

Cosmos 1939 Rocket - Orbit

View from above orbital plane
View from above orbital plane
View from above satellite
View from above satellite

Ground track
Ground track

The orbit data is extracted from the following two-line orbital elements,

1 19046U 88032B   17084.93366647 +.00000384 +00000-0 +33382-4 0  9993
2 19046 097.5435 134.2170 0036405 249.3784 110.3536 15.02181238559850
Epoch (UTC): 25 March 2017 22:24:28
Eccentricity: 0.0036405
inclination: 97.5435°
perigee height: 535 km
apogee height: 585 km
right ascension of ascending node: 134.2170°
argument of perigee: 249.3784°
revolutions per day: 15.02181238
mean anomaly at epoch: 110.3536°
orbit number at epoch: 55985

The dashed part of the orbit path shows where the satellite is in the earth's shadow,  

DLR